Aéroclub Castres-Mazamet
ACCUEIL




METAR
LFCK 182300Z AUTO 14004KT 110V180 CAVOK 13/12 Q1012 TEMPO 13020G30KT



Liens utiles
F.F.A
Météo France
OLIVIA
SIA
D.G.A.C
Bienvenue à l'aéroclub de Castres-Mazamet


               





Actualités

 Assemblée Générale   
Publié le 06-Jan-2019    
L'AG du club aura lieu le vendredi 15 février 2019


Voir plus